• In Italy
  • List of Countries
  • For 7 days
  • Water Temperature
  • Satellite Maps
  • Weather Map
  • Weather Widgets
  • user-avatar
    Login

    Hourly Weather Chakhansur

    Today, 20 February, Tuesday

    Time Temperature Precipitation Wind Pressure Humidity
    00:00 +26°C° 0 mm 6 mps 713 mmHg 19%
    01:00 +26°C° 0 mm 6 mps 713 mmHg 20%
    02:00 +24°C° 0 mm 6 mps 713 mmHg 21%
    03:00 +23°C° 0 mm 5 mps 713 mmHg 23%
    04:00 +22°C° 0 mm 5 mps 713 mmHg 24%
    05:00 +21°C° 0 mm 5 mps 714 mmHg 26%
    06:00 +21°C° 0 mm 5 mps 714 mmHg 27%
    07:00 +20°C° 0 mm 5 mps 715 mmHg 29%
    08:00 +20°C° 0 mm 6 mps 715 mmHg 28%
    09:00 +21°C° 0 mm 6 mps 716 mmHg 27%
    10:00 +21°C° 0 mm 6 mps 716 mmHg 25%
    11:00 +22°C° 0 mm 7 mps 716 mmHg 23%
    12:00 +24°C° 0 mm 7 mps 717 mmHg 21%
    13:00 +26°C° 0 mm 7 mps 717 mmHg 19%
    14:00 +26°C° 0 mm 6 mps 716 mmHg 18%
    15:00 +26°C° 0 mm 6 mps 716 mmHg 16%
    16:00 +27°C° 0 mm 5 mps 716 mmHg 15%
    17:00 +25°C° 0 mm 5 mps 717 mmHg 17%
    18:00 +23°C° 0 mm 5 mps 717 mmHg 19%
    19:00 +22°C° 0 mm 4 mps 717 mmHg 20%
    20:00 +21°C° 0 mm 5 mps 718 mmHg 23%
    21:00 +20°C° 0 mm 5 mps 718 mmHg 25%
    22:00 +19°C° 0 mm 5 mps 718 mmHg 27%
    23:00 +17°C° 0 mm 5 mps 718 mmHg 29%

    Tomorrow, 21 February, Wednesday

    Time Temperature Precipitation Wind Pressure Humidity
    00:00 +17°C° 0 mm 5 mps 718 mmHg 31%
    01:00 +16°C° 0 mm 5 mps 718 mmHg 33%
    02:00 +15°C° 0 mm 5 mps 718 mmHg 35%
    03:00 +15°C° 0 mm 4 mps 718 mmHg 37%
    04:00 +14°C° 0 mm 4 mps 718 mmHg 39%
    05:00 +14°C° 0 mm 4 mps 719 mmHg 40%
    06:00 +13°C° 0 mm 4 mps 719 mmHg 42%
    07:00 +13°C° 0 mm 3 mps 719 mmHg 43%
    08:00 +16°C° 0 mm 3 mps 720 mmHg 38%
    09:00 +18°C° 0 mm 3 mps 720 mmHg 33%
    10:00 +20°C° 0 mm 3 mps 721 mmHg 28%
    11:00 +21°C° 0 mm 3 mps 720 mmHg 25%
    12:00 +23°C° 0 mm 2 mps 720 mmHg 22%
    13:00 +25°C° 0 mm 2 mps 719 mmHg 19%
    14:00 +25°C° 0 mm 2 mps 719 mmHg 18%
    15:00 +25°C° 0 mm 2 mps 719 mmHg 17%
    16:00 +26°C° 0 mm 1 mps 718 mmHg 17%
    17:00 +24°C° 0 mm 2 mps 718 mmHg 18%
    18:00 +23°C° 0 mm 2 mps 718 mmHg 19%
    19:00 +21°C° 0 mm 2 mps 718 mmHg 20%
    20:00 +21°C° 0 mm 2 mps 718 mmHg 21%
    21:00 +20°C° 0 mm 2 mps 718 mmHg 21%
    22:00 +20°C° 0 mm 2 mps 718 mmHg 22%
    23:00 +19°C° 0 mm 2 mps 718 mmHg 22%

    Day after tomorrow, 22 February, Thursday

    Time Temperature Precipitation Wind Pressure Humidity
    00:00 +19°C° 0 mm 2 mps 718 mmHg 23%
    01:00 +19°C° 0 mm 2 mps 718 mmHg 23%
    02:00 +18°C° 0 mm 2 mps 718 mmHg 24%
    03:00 +18°C° 0 mm 2 mps 717 mmHg 24%
    04:00 +17°C° 0 mm 2 mps 717 mmHg 25%
    05:00 +17°C° 0 mm 2 mps 717 mmHg 25%
    06:00 +17°C° 0 mm 2 mps 717 mmHg 25%
    07:00 +17°C° 0 mm 2 mps 717 mmHg 25%
    08:00 +19°C° 0 mm 2 mps 718 mmHg 22%
    09:00 +21°C° 0 mm 2 mps 718 mmHg 19%
    10:00 +24°C° 0 mm 2 mps 718 mmHg 16%
    11:00 +25°C° 0 mm 2 mps 717 mmHg 15%
    12:00 +26°C° 0 mm 1 mps 717 mmHg 14%
    13:00 +27°C° 0 mm 1 mps 716 mmHg 13%
    14:00 +27°C° 0 mm 1 mps 716 mmHg 12%
    15:00 +28°C° 0 mm 1 mps 716 mmHg 12%
    16:00 +28°C° 0 mm 1 mps 715 mmHg 12%
    17:00 +27°C° 0 mm 2 mps 715 mmHg 13%
    18:00 +26°C° 0 mm 3 mps 716 mmHg 13%
    19:00 +26°C° 0 mm 3 mps 716 mmHg 14%
    20:00 +25°C° 0 mm 3 mps 716 mmHg 15%
    21:00 +25°C° 0 mm 3 mps 716 mmHg 15%
    22:00 +24°C° 0 mm 2 mps 716 mmHg 16%
    23:00 +22°C° 0 mm 3 mps 716 mmHg 17%

    23 February, Friday

    Time Temperature Precipitation Wind Pressure Humidity
    00:00 +21°C° 0 mm 3 mps 715 mmHg 18%
    01:00 +20°C° 0 mm 3 mps 715 mmHg 20%
    02:00 +20°C° 0 mm 3 mps 715 mmHg 20%
    03:00 +20°C° 0 mm 3 mps 714 mmHg 20%
    04:00 +19°C° 0 mm 3 mps 714 mmHg 21%
    05:00 +19°C° 0 mm 3 mps 714 mmHg 21%
    06:00 +19°C° 0 mm 3 mps 714 mmHg 21%
    07:00 +19°C° 0 mm 2 mps 715 mmHg 20%
    08:00 +20°C° 0 mm 3 mps 715 mmHg 20%
    09:00 +21°C° 0 mm 4 mps 716 mmHg 19%
    10:00 +22°C° 0 mm 4 mps 716 mmHg 18%
    11:00 +22°C° 0.1 mm 4 mps 716 mmHg 23%
    12:00 +21°C° 0.1 mm 4 mps 715 mmHg 28%
    13:00 +21°C° 0.1 mm 4 mps 715 mmHg 34%
    14:00 +21°C° 0.1 mm 4 mps 714 mmHg 35%
    15:00 +21°C° 0.1 mm 4 mps 714 mmHg 35%
    16:00 +21°C° 0.1 mm 4 mps 714 mmHg 36%
    17:00 +20°C° 0 mm 4 mps 714 mmHg 40%
    18:00 +19°C° 0 mm 5 mps 714 mmHg 44%
    19:00 +17°C° 0 mm 5 mps 714 mmHg 47%
    20:00 +16°C° 0 mm 5 mps 715 mmHg 50%
    21:00 +17°C° 0 mm 4 mps 715 mmHg 52%
    22:00 +15°C° 0 mm 4 mps 715 mmHg 55%
    23:00 +16°C° 0 mm 3 mps 715 mmHg 58%

    24 February, Saturday

    Time Temperature Precipitation Wind Pressure Humidity
    00:00 +16°C° 0 mm 3 mps 714 mmHg 61%
    01:00 +15°C° 0 mm 2 mps 714 mmHg 64%
    02:00 +15°C° 0 mm 2 mps 714 mmHg 66%
    03:00 +15°C° 0 mm 2 mps 714 mmHg 68%
    04:00 +14°C° 0 mm 3 mps 714 mmHg 69%
    05:00 +15°C° 0 mm 2 mps 715 mmHg 69%
    06:00 +15°C° 0 mm 2 mps 715 mmHg 68%
    07:00 +15°C° 0 mm 2 mps 715 mmHg 68%
    08:00 +17°C° 0 mm 2 mps 716 mmHg 60%
    09:00 +19°C° 0 mm 2 mps 716 mmHg 53%
    10:00 +21°C° 0 mm 2 mps 717 mmHg 45%
    11:00 +23°C° 0.1 mm 1 mps 716 mmHg 41%
    12:00 +24°C° 0.1 mm 1 mps 716 mmHg 37%
    13:00 +25°C° 0.1 mm 1 mps 715 mmHg 34%
    14:00 +26°C° 0 mm 1 mps 715 mmHg 32%
    15:00 +26°C° 0 mm 1 mps 715 mmHg 30%
    16:00 +27°C° 0 mm 1 mps 714 mmHg 28%
    17:00 +26°C° 0 mm 1 mps 714 mmHg 30%
    18:00 +25°C° 0 mm 1 mps 715 mmHg 32%
    19:00 +24°C° 0 mm 1 mps 715 mmHg 34%
    20:00 +23°C° 0 mm 2 mps 715 mmHg 35%
    21:00 +23°C° 0 mm 2 mps 715 mmHg 36%
    22:00 +21°C° 0 mm 3 mps 715 mmHg 37%
    23:00 +21°C° 0 mm 3 mps 715 mmHg 38%

    25 February, Sunday

    Time Temperature Precipitation Wind Pressure Humidity
    00:00 +20°C° 0 mm 3 mps 715 mmHg 40%
    01:00 +20°C° 0 mm 3 mps 715 mmHg 41%
    02:00 +20°C° 0 mm 4 mps 715 mmHg 42%
    03:00 +19°C° 0 mm 4 mps 715 mmHg 43%
    04:00 +19°C° 0 mm 4 mps 715 mmHg 44%
    05:00 +19°C° 0 mm 4 mps 716 mmHg 45%
    06:00 +19°C° 0 mm 4 mps 716 mmHg 46%
    07:00 +19°C° 0 mm 4 mps 717 mmHg 47%
    08:00 +20°C° 0 mm 4 mps 717 mmHg 43%
    09:00 +22°C° 0 mm 4 mps 717 mmHg 39%
    10:00 +25°C° 0 mm 4 mps 717 mmHg 35%
    11:00 +25°C° 0.1 mm 4 mps 717 mmHg 35%
    12:00 +25°C° 0.1 mm 5 mps 717 mmHg 35%
    13:00 +26°C° 0.1 mm 5 mps 717 mmHg 35%
    14:00 +25°C° 0.6 mm 5 mps 717 mmHg 40%
    15:00 +23°C° 0.6 mm 5 mps 716 mmHg 44%
    16:00 +22°C° 0.6 mm 5 mps 716 mmHg 49%
    17:00 +22°C° 0.2 mm 4 mps 716 mmHg 50%
    18:00 +21°C° 0.2 mm 3 mps 716 mmHg 52%
    19:00 +21°C° 0.2 mm 3 mps 716 mmHg 53%
    20:00 +21°C° 0 mm 3 mps 716 mmHg 53%
    21:00 +21°C° 0 mm 3 mps 715 mmHg 54%
    22:00 +20°C° 0 mm 3 mps 715 mmHg 54%
    23:00 +20°C° 0.1 mm 3 mps 715 mmHg 54%
    Show more